DW4070 Weather Reports


time (UTC)temp
F
wind
direction
speed
knots
gust
knots
rain 1hr
in
rain 24hr
in
rain mn
in
humidity
%
barometer
mb
20260902163052 68 263 0.0 1.7 0.00 0.04 0.00 85 1022.0
20260902161554 68 262 0.0 2.6 0.00 0.04 0.00 84 1021.9
20260902160055 68 264 0.0 1.7 0.00 0.04 0.00 84 1022.0
20260902154605 69 264 0.0 2.6 0.00 0.11 0.00 85 1022.0
20260902153050 69 264 0.0 2.6 0.00 0.11 0.00 82 1022.2
20260902151550 69 264 0.0 4.3 0.00 0.11 0.00 85 1022.0
20260902150048 69 264 0.0 3.5 0.00 0.11 0.00 84 1022.1
20260902144545 68 264 0.0 3.5 0.00 0.22 0.00 86 1021.9
20260902143040 66 264 0.0 4.3 0.00 0.22 0.00 90 1021.6
20260902141537 65 262 0.0 1.7 0.00 0.22 0.00 90 1022.4
20260902140046 65 262 0.0 0.0 0.00 0.22 0.00 90 1022.5
20260902134533 64 261 0.0 0.0 0.00 0.23 0.00 92 1022.2
20260902133030 64 262 0.0 0.0 0.00 0.23 0.00 91 1022.0
20260902131529 64 261 0.0 0.0 0.00 0.23 0.00 92 1021.8
20260902130029 63 261 0.0 0.0 0.00 0.23 0.00 92 1021.8
20260902124526 63 261 0.0 0.0 0.00 0.23 0.00 92 1021.8
20260902123025 63 262 0.0 0.0 0.00 0.23 0.00 92 1021.6
20260902121525 62 261 0.0 0.0 0.00 0.23 0.00 92 1021.6
20260902120026 62 262 0.0 0.9 0.00 0.23 0.00 93 1021.6
20260902114540 62 261 0.0 1.7 0.00 0.23 0.00 93 1021.7
20260902113023 62 245 0.0 0.0 0.00 0.23 0.00 94 1021.7
20260902111523 62 245 0.0 0.0 0.00 0.23 0.00 94 1021.8
20260902110021 62 273 0.0 0.0 0.00 0.23 0.00 94 1021.6
20260902104518 62 273 0.0 0.0 0.00 0.23 0.00 95 1021.4
20260902103016 62 273 0.0 0.0 0.00 0.23 0.00 95 1021.3
20260902101516 62 273 0.0 0.0 0.00 0.23 0.00 95 1021.2
20260902100012 62 273 0.0 0.0 0.00 0.23 0.00 95 1021.2
20260902094511 62 273 0.0 0.0 0.00 0.23 0.00 95 1021.2
20260902093017 62 273 0.0 0.0 0.00 0.23 0.00 95 1021.0
20260902091510 62 273 0.0 0.0 0.00 0.23 0.00 95 1021.0
20260902090005 62 273 0.0 0.0 0.00 0.23 0.00 95 1020.7
20260902084510 63 273 0.0 0.0 0.00 0.23 0.00 95 1020.6
20260902083004 63 273 0.0 0.0 0.00 0.23 0.00 95 1020.5
20260902081500 63 273 0.0 0.9 0.00 0.23 0.00 95 1020.4
20260902080108 63 273 0.0 1.7 0.00 0.23 0.00 95 1020.0
20260902074602 63 273 0.0 0.0 0.00 0.24 0.00 94 1020.0
20260902073109 63 273 0.0 0.0 0.00 0.24 0.00 94 1019.9
20260902071603 63 273 0.0 1.7 0.00 0.24 0.00 94 1019.8
20260902070057 63 273 0.0 0.0 0.00 0.24 0.00 94 1019.8
20260902064556 63 273 0.0 0.0 0.00 0.48 0.00 94 1019.9
20260902063055 63 273 0.0 0.0 0.00 0.48 0.00 94 1020.0
20260902061615 63 273 0.0 0.0 0.00 0.48 0.00 94 1020.1
20260902060058 63 273 0.0 0.0 0.00 0.48 0.00 94 1020.1
20260902054552 63 273 0.0 0.0 0.00 0.80 0.00 94 1020.0
20260902053052 63 273 0.0 0.0 0.00 0.80 0.00 94 1020.1
20260902051551 63 273 0.0 0.9 0.00 0.80 0.00 94 1020.1
20260902050049 63 273 0.0 0.0 0.00 0.80 0.00 94 1019.8
20260902044549 63 273 0.0 0.0 0.00 0.88 0.00 93 1020.0
20260902043052 63 273 0.0 0.0 0.00 0.88 0.00 93 1020.0
20260902041604 63 273 0.0 0.0 0.00 0.88 0.00 93 1019.9
20260902040047 63 273 0.0 0.0 0.00 0.88 0.00 93 1019.6
20260902034543 63 273 0.0 0.0 0.00 0.88 0.88 93 1019.4
20260902033043 64 273 0.0 2.6 0.00 0.88 0.88 93 1019.2
20260902031540 64 273 0.0 1.7 0.00 0.88 0.88 93 1019.1
20260902030039 64 273 0.0 1.7 0.00 0.88 0.88 93 1019.2
20260902024544 64 273 0.9 5.2 0.00 0.88 0.88 92 1019.0
20260902023039 64 263 0.0 4.3 0.00 0.88 0.88 92 1019.1
20260902021546 64 261 0.0 1.7 0.00 0.88 0.88 92 1018.9
20260902020036 64 309 0.0 1.7 0.00 0.88 0.88 92 1018.8
20260902014537 65 333 0.0 1.7 0.00 0.88 0.88 92 1018.2
20260902013032 65 346 0.0 3.5 0.00 0.88 0.88 91 1018.2
20260902011531 65 286 0.0 1.7 0.00 0.88 0.88 92 1018.0
20260902010029 66 286 0.0 0.0 0.00 0.88 0.88 91 1017.8
20260902004528 66 285 0.0 3.5 0.00 0.88 0.88 91 1017.9
20260902003028 66 286 0.9 3.5 0.00 0.88 0.88 91 1017.7
20260902001526 66 285 0.0 3.5 0.00 0.88 0.88 91 1017.2
20260902000024 67 285 0.9 2.6 0.00 0.88 0.88 91 1017.1
20260901234523 67 285 0.0 2.6 0.00 0.88 0.88 91 1017.3
20260901233047 68 285 0.9 3.5 0.00 0.88 0.88 91 1017.2
20260901231522 68 285 0.9 4.3 0.00 0.88 0.88 91 1016.6
20260901230032 69 284 0.9 5.2 0.00 0.88 0.88 90 1016.7
20260901224520 70 281 0.0 4.3 0.00 0.88 0.88 92 1016.3
20260901223020 71 281 0.0 2.6 0.00 0.88 0.88 93 1016.0
20260901221519 72 281 0.0 1.7 0.00 0.88 0.88 92 1015.9
20260901220018 73 281 2.6 6.1 0.00 0.88 0.88 92 1015.8
20260901214533 74 286 1.7 3.5 0.00 0.88 0.88 92 1015.8
20260901213017 75 286 0.0 2.6 0.00 0.88 0.88 92 1015.7
20260901211517 75 286 0.0 1.7 0.00 0.88 0.88 93 1015.5
20260901210016 75 286 0.0 1.7 0.00 0.88 0.88 92 1015.6
20260901204520 76 286 0.0 0.0 0.00 0.88 0.88 93 1015.6
20260901203018 76 286 0.0 0.0 0.00 0.88 0.88 92 1015.4
20260901201515 76 286 0.0 0.0 0.00 0.88 0.88 92 1015.3
20260901200022 76 286 0.0 1.7 0.00 0.88 0.88 91 1015.5
20260901194517 76 286 0.0 1.7 0.00 0.88 0.88 93 1015.4
20260901193011 76 286 0.0 0.0 0.00 0.88 0.88 94 1015.5
20260901191510 75 286 0.0 1.7 0.00 0.88 0.88 95 1015.5
20260901190009 74 286 0.0 0.0 0.00 0.88 0.88 94 1015.5
20260901184505 74 286 0.0 0.0 0.00 0.88 0.88 95 1015.4
20260901183003 74 286 0.0 1.7 0.00 0.88 0.88 96 1015.5
20260901181503 73 286 0.0 0.0 0.00 0.88 0.88 96 1015.6
20260901180059 73 286 0.0 1.7 0.00 0.88 0.88 96 1015.8
20260901174602 73 286 0.0 1.7 0.00 0.88 0.88 96 1015.7
20260901173056 72 286 0.0 1.7 0.02 0.88 0.88 97 1015.8
20260901171556 72 286 0.0 0.9 0.03 0.88 0.88 97 1015.8
20260901170056 72 286 0.0 0.0 0.03 0.88 0.88 97 1015.8
20260901164602 71 286 0.0 0.0 0.06 0.88 0.88 97 1015.8